Weather History for Decatur, AL

Change the Weather History Date:

Wednesday, April 3, 2013

  Actual Average Record
Temperature  
Mean Temperature 48 °F -  
Max Temperature 54 °F 70 °F 87 °F (2007)
Min Temperature 42 °F 44 °F 26 °F (1992)
Degree Days  
Heating Degree Days 17    
Moisture  
Dew Point 32 °F    
Average Humidity 57    
Maximum Humidity 93    
Minimum Humidity 34    
Precipitation  
Precipitation 0.15 in - - ()
Sea Level Pressure  
Sea Level Pressure 30.18 in    
Wind  
Wind Speed 8 mph (NE)    
Max Wind Speed 14 mph    
Max Gust Speed 20 mph    
Visibility 10 miles    
Events Rain    
Averages and records for this station are not official NWS values.
T = Trace of Precipitation, MM = Missing Value Source: NWS Daily Summary

Daily Weather History Graph

Daily Weather History Graph

Search for Another Location

Airport:

Trip Planner

Search our weather history database for the weather conditions in past years. The results will help you decide how hot, cold, wet, or windy it might be!

Date:

Astronomy

Apr. 03, 2013 Rise Set
Actual Time 6:31 AM CDT 7:10 PM CDT
Civil Twilight 6:06 AM CDT 7:36 PM CDT
Nautical Twilight 5:36 AM CDT 8:06 PM CDT
Astronomical Twilight 5:05 AM CDT 8:36 PM CDT
Moon 1:56 AM CDT (4/3) 12:37 PM CDT (4/3)
Length of Visible Light 13h 29m
Length of Day
12h 38m
Last Quarter, 44% of the Moon is Illuminated
Apr 3
Last Quarter
Apr 10
New
Apr 18
First Quarter
Apr 25
Full
May 2
Last Quarter

Hourly Weather History & Observations

Time (CDT) Temp. Windchill Dew Point Humidity Pressure Visibility Wind Dir Wind Speed Gust Speed Precip Events Conditions
12:53 AM 46.0 °F 39.9 °F 27.0 °F 47% 30.19 in 10.0 mi NNE 13.8 mph 19.6 mph N/A   Overcast
1:53 AM 45.0 °F 40.6 °F 26.1 °F 48% 30.18 in 10.0 mi NE 8.1 mph 16.1 mph N/A   Partly Cloudy
2:53 AM 44.1 °F 39.0 °F 26.1 °F 49% 30.15 in 10.0 mi NNE 9.2 mph - N/A   Clear
3:53 AM 43.0 °F 38.2 °F 25.0 °F 49% 30.15 in 10.0 mi NE 8.1 mph - N/A   Clear
4:53 AM 43.0 °F 37.2 °F 24.1 °F 47% 30.18 in 10.0 mi NNE 10.4 mph - N/A   Clear
5:53 AM 42.1 °F 39.2 °F 24.1 °F 49% 30.20 in 10.0 mi NE 4.6 mph - N/A   Partly Cloudy
6:53 AM 42.1 °F 37.7 °F 24.1 °F 49% 30.20 in 10.0 mi NNE 6.9 mph - N/A   Clear
7:53 AM 44.1 °F 38.6 °F 23.0 °F 43% 30.22 in 10.0 mi NNE 10.4 mph - N/A   Clear
8:53 AM 46.0 °F 43.1 °F 25.0 °F 44% 30.21 in 10.0 mi NE 5.8 mph - N/A   Clear
9:53 AM 48.9 °F - 24.1 °F 38% 30.22 in 10.0 mi ENE 9.2 mph - N/A   Mostly Cloudy
10:53 AM 51.1 °F - 25.0 °F 36% 30.20 in 10.0 mi NE 9.2 mph 18.4 mph N/A   Partly Cloudy
11:53 AM 53.1 °F - 27.0 °F 37% 30.20 in 10.0 mi East 6.9 mph - N/A   Overcast
12:53 PM 54.0 °F - 26.1 °F 34% 30.21 in 10.0 mi ENE 6.9 mph - N/A   Overcast
1:53 PM 54.0 °F - 28.9 °F 38% 30.21 in 10.0 mi NNE 4.6 mph - 0.00 in Rain Light Rain
2:53 PM 52.0 °F - 34.0 °F 50% 30.19 in 10.0 mi NNE 9.2 mph - 0.00 in Rain Light Rain
3:53 PM 51.1 °F - 37.0 °F 59% 30.17 in 10.0 mi NNE 5.8 mph - 0.01 in Rain Light Rain
4:53 PM 51.1 °F - 37.0 °F 59% 30.15 in 10.0 mi NE 3.5 mph - 0.00 in Rain Light Rain
5:53 PM 50.0 °F - 43.0 °F 77% 30.15 in 10.0 mi Calm Calm - 0.02 in Rain Light Rain
6:53 PM 48.0 °F - 45.0 °F 89% 30.15 in 6.0 mi SSE 5.8 mph - 0.04 in Rain Light Rain
7:53 PM 46.0 °F 44.8 °F 44.1 °F 93% 30.14 in 9.0 mi East 3.5 mph - 0.04 in Rain Light Rain
8:53 PM 46.0 °F 43.9 °F 43.0 °F 89% 30.14 in 10.0 mi ESE 4.6 mph - 0.01 in Rain Light Rain
9:53 PM 46.0 °F 42.5 °F 41.0 °F 83% 30.14 in 10.0 mi East 6.9 mph - 0.01 in Rain Light Rain
10:53 PM 46.0 °F 44.8 °F 41.0 °F 83% 30.15 in 10.0 mi East 3.5 mph - 0.01 in   Overcast
11:53 PM 46.0 °F 44.8 °F 41.0 °F 83% 30.15 in 6.0 mi East 3.5 mph - 0.01 in Rain Light Rain